Weather History for Joplin, MO

Change the Weather History Date:

Saturday, March 16, 2013

  Actual Average Record
Temperature  
Mean Temperature 54 °F 49 °F  
Max Temperature 67 °F 60 °F 82 °F (2012)
Min Temperature 40 °F 38 °F 19 °F (1988)
Degree Days  
Heating Degree Days 11 16  
Month to date heating degree days 326 297  
Since 1 July heating degree days 3442 3551  
Cooling Degree Days 0 0  
Month to date cooling degree days 0 0  
Year to date cooling degree days 1 1  
Growing Degree Days 5 (Base 50)    
Moisture  
Dew Point 40 °F    
Average Humidity 58    
Maximum Humidity 71    
Minimum Humidity 44    
Precipitation  
Precipitation 0.01 in 0.11 in 1.52 in (1970)
Month to date precipitation 1.00 1.67  
Year to date precipitation 6.15 6.02  
Snow  
Snow 0.00 in - - ()
Month to date snowfall T  
Snow Depth 0.00 in    
Sea Level Pressure  
Sea Level Pressure 29.85 in    
Wind  
Wind Speed 14 mph (NNE)    
Max Wind Speed 20 mph    
Max Gust Speed 84 mph    
Visibility 9 miles    
Events      
T = Trace of Precipitation, MM = Missing Value Source: NWS Daily Summary

Daily Weather History Graph

Daily Weather History Graph

Search for Another Location

Airport:

Trip Planner

Search our weather history database for the weather conditions in past years. The results will help you decide how hot, cold, wet, or windy it might be!

Date:

Astronomy

Mar. 16, 2013 Rise Set
Actual Time 7:27 AM CDT 7:26 PM CDT
Civil Twilight 7:01 AM CDT 7:52 PM CDT
Nautical Twilight 6:30 AM CDT 8:22 PM CDT
Astronomical Twilight 6:00 AM CDT 8:53 PM CDT
Moon 10:04 AM CDT (3/16) No Moon Set
Length of Visible Light 12h 51m
Length of Day
11h 59m
Waxing Crescent, 23% of the Moon is Illuminated
Mar 16
Waxing Crescent
Mar 19
First Quarter
Mar 27
Full
Apr 2
Last Quarter
Apr 10
New

Hourly Weather History & Observations

Time (CDT) Temp. Windchill Dew Point Humidity Pressure Visibility Wind Dir Wind Speed Gust Speed Precip Events Conditions
12:53 AM 66.0 °F - 44.1 °F 45% 29.72 in 10.0 mi SSW 17.3 mph 25.3 mph N/A   Clear
1:53 AM 64.9 °F - 43.0 °F 45% 29.72 in 10.0 mi SSW 18.4 mph 25.3 mph N/A   Clear
2:53 AM 64.9 °F - 43.0 °F 45% 29.73 in 10.0 mi SSW 16.1 mph - N/A   Clear
3:53 AM 63.0 °F - 43.0 °F 48% 29.72 in 10.0 mi SSW 13.8 mph - N/A   Clear
4:53 AM 60.1 °F - 43.0 °F 53% 29.76 in 10.0 mi West 5.8 mph - N/A   Clear
5:53 AM 53.1 °F - 43.0 °F 69% 29.78 in 10.0 mi SSW 6.9 mph - N/A   Clear
6:53 AM 53.1 °F - 43.0 °F 69% 29.81 in 10.0 mi NW 5.8 mph - N/A   Clear
7:53 AM 53.1 °F - 45.0 °F 74% 29.83 in 10.0 mi NNE 9.2 mph - N/A   Clear
8:53 AM 53.1 °F - 45.0 °F 74% 29.86 in 10.0 mi NNE 12.7 mph - N/A   Clear
9:53 AM 54.0 °F - 43.0 °F 66% 29.88 in 10.0 mi NE 13.8 mph 21.9 mph N/A   Clear
10:53 AM 57.0 °F - 43.0 °F 59% 29.90 in 10.0 mi NNE 15.0 mph 21.9 mph N/A   Clear
11:53 AM 55.9 °F - 43.0 °F 62% 29.89 in 8.0 mi NNE 16.1 mph - N/A   Clear
12:53 PM 57.9 °F - 42.1 °F 56% 29.90 in 9.0 mi NNE 12.7 mph 20.7 mph N/A   Clear
1:53 PM 57.0 °F - 41.0 °F 55% 29.89 in 9.0 mi NNE 16.1 mph 23.0 mph N/A   Clear
2:53 PM 55.9 °F - 39.9 °F 55% 29.87 in 9.0 mi NNE 16.1 mph 23.0 mph N/A   Clear
3:53 PM 55.9 °F - 39.0 °F 53% 29.84 in 9.0 mi NE 16.1 mph 25.3 mph N/A   Clear
4:53 PM 53.1 °F - 37.9 °F 57% 29.87 in 9.0 mi NNE 10.4 mph 23.0 mph N/A   Clear
5:53 PM 51.1 °F - 37.0 °F 59% 29.88 in 10.0 mi NE 19.6 mph 27.6 mph N/A   Clear
6:53 PM 50.0 °F - 37.0 °F 61% 29.88 in 10.0 mi NE 12.7 mph 23.0 mph N/A   Overcast
7:53 PM 48.0 °F - 36.0 °F 63% 29.89 in 9.0 mi East 18.4 mph 70.2 mph N/A   Overcast
7:58 PM 46.4 °F 42.4 °F 35.6 °F 66% 29.90 in 8.0 mi NE 8.1 mph 70.2 mph N/A   Squalls
8:53 PM 46.0 °F 39.3 °F 36.0 °F 68% 29.92 in 9.0 mi NE 16.1 mph 19.6 mph N/A   Overcast
9:53 PM 45.0 °F 39.3 °F 36.0 °F 71% 29.93 in 10.0 mi NE 11.5 mph - N/A   Overcast
10:49 PM 44.1 °F 37.1 °F 35.1 °F 71% 29.91 in 8.0 mi NE 15.0 mph 84.0 mph N/A   Squalls
11:47 PM 44.6 °F 40.2 °F 35.6 °F 71% 29.92 in 9.0 mi NE 8.1 mph 72.5 mph N/A   Squalls
11:48 PM 44.1 °F 38.1 °F 35.1 °F 71% 29.92 in 9.0 mi NNE 11.5 mph 72.5 mph N/A   Squalls